Helicity
164 196 237 265 218 226 206 194 285 338 366 352 404 352 264 206 128 136 179 184 158 153
210 230 198 224 223 243 236 251 321 356 478 464 383 270 319 225 148 240 210 136 162 187
179 189 196 200 236 250 226 260 302 451 440 397 306 244 215 264 366 240 115 177 197 174
152 164 208 210 231 251 273 395 402 398 355 401 355 169 271 421 168 110 160 161 131 95
178 185 205 220 261 315 312 310 367 380 299 348 258 541 328 142 103 139 116 92 121 96
172 187 201 226 210 177 230 292 365 372 348 411 265 212 148 102 110 97 85 93 102 113
197 173 148 191 197 200 224 294 336 379 371 344 135 161 124 104 96 91 85 99 124 128
171 177 193 230 252 346 334 432 399 542 234 192 185 151 109 79 73 81 105 125 148 158
244 257 307 339 384 359 485 453 453 251 151 148 135 103 82 67 92 109 137 146 157 159
273 322 332 359 415 375 440 289 251 133 127 102 74 77 72 83 125 155 163 165 180 188
324 331 328 387 382 246 238 132 106 99 76 77 72 83 100 117 148 175 165 180 178 185
311 279 258 239 147 125 88 90 95 88 86 100 93 110 119 139 170 195 193 192 187 196
207 179 177 143 104 97 107 100 101 99 100 111 113 116 121 155 208 227 226 193 196 210
207 209 169 138 128 120 112 103 99 100 105 114 130 141 150 164 211 239 244 266 248 229
Wind_Speed
14 16 18 19 20 16 17 14 13 15 17 14 17 20 26 36 42 46 48 49 50 53
16 17 18 19 19 17 24 23 18 17 17 20 24 26 37 39 46 47 46 48 53 53
18 19 19 21 18 17 24 24 18 19 23 28 29 38 35 41 45 49 53 51 50 50
22 21 22 21 19 20 21 21 19 21 25 27 35 36 41 48 55 55 53 49 49 51
24 23 22 21 18 17 22 19 22 24 23 33 31 35 45 52 52 52 53 48 49 53
28 25 24 23 21 18 16 16 18 20 28 34 33 43 45 48 53 56 50 47 50 51
32 31 26 24 19 20 20 18 20 27 29 33 38 45 51 56 57 55 52 50 51 52
30 28 25 23 23 23 23 28 31 36 32 38 44 54 56 55 57 57 56 55 54 54
29 28 28 27 27 28 33 30 36 37 41 49 56 54 54 59 59 60 62 64 62 58
29 29 29 29 32 35 42 41 43 48 51 55 52 55 59 64 64 64 66 68 68 67
31 32 33 40 40 43 44 46 50 50 49 52 56 59 63 65 68 69 72 71 69 66
35 37 42 44 45 47 47 49 50 52 55 57 61 65 69 72 74 77 77 73 69 66
38 41 46 46 46 48 50 53 56 58 59 64 69 71 75 77 79 82 82 77 73 67
44 46 46 47 50 52 55 58 62 66 67 70 73 79 81 83 83 83 83 79 77 70
Wind_Direction
249 267 279 282 294 291 277 277 291 295 300 297 312 322 326 325 330 333 332 334 336 335
273 272 276 283 286 294 289 288 295 302 299 311 316 317 326 327 330 332 334 333 333 334
280 285 291 299 288 292 294 291 289 301 307 317 321 325 329 331 334 333 330 331 331 333
307 304 305 306 307 304 298 295 294 298 306 315 323 323 324 328 328 327 328 328 328 329
320 323 320 318 318 310 304 298 298 303 305 313 319 323 322 319 324 327 326 326 326 326
325 326 328 323 320 318 314 310 310 305 317 317 320 323 324 323 323 324 324 324 323 324
331 331 331 332 334 330 327 326 324 317 321 321 317 324 324 323 323 323 321 321 321 322
341 345 348 347 344 343 342 331 333 328 322 325 324 323 321 322 323 322 322 321 320 319
356 359 357 356 353 350 345 341 334 329 324 321 321 322 320 320 321 322 321 320 319 318
6 6 5 1 352 343 338 333 330 326 323 321 323 323 322 321 321 321 320 319 319 318
11 5 358 348 342 340 337 332 329 329 328 326 325 324 324 324 322 320 319 319 318 317
0 355 348 344 339 337 336 336 334 332 330 328 327 326 324 323 321 319 318 318 317 315
356 352 347 345 342 340 339 336 334 332 331 329 326 326 324 323 321 318 317 316 315 313
354 351 349 347 345 342 339 336 333 331 330 328 327 326 325 323 322 319 316 314 315 314